TimeCST,TemperatureF,Dew PointF,Humidity,Sea Level PressureIn,VisibilityMPH,Wind Direction,Wind SpeedMPH,Gust SpeedMPH,PrecipitationIn,Events,Conditions,WindDirDegrees,DateUTC
12:54 AM,16.0,12.9,88,30.39,10.0,South,3.5,-,N/A,,Clear,190,2013-01-10 06:54:00
1:54 AM,16.0,12.9,88,30.41,10.0,Calm,Calm,-,N/A,,Clear,0,2013-01-10 07:54:00
2:54 AM,16.0,14.0,92,30.44,10.0,Calm,Calm,-,N/A,,Clear,0,2013-01-10 08:54:00
3:54 AM,18.0,15.1,88,30.45,10.0,South,4.6,-,N/A,,Clear,170,2013-01-10 09:54:00
4:54 AM,21.9,16.0,78,30.46,10.0,Calm,Calm,-,N/A,,Clear,0,2013-01-10 10:54:00
5:54 AM,19.0,15.1,85,30.47,10.0,Calm,Calm,-,N/A,,Clear,0,2013-01-10 11:54:00
6:54 AM,16.0,12.9,88,30.47,10.0,Calm,Calm,-,N/A,,Clear,0,2013-01-10 12:54:00
7:54 AM,14.0,12.0,92,30.46,10.0,Calm,Calm,-,N/A,,Clear,0,2013-01-10 13:54:00
8:54 AM,14.0,12.0,92,30.44,10.0,Calm,Calm,-,N/A,,Clear,0,2013-01-10 14:54:00
9:54 AM,27.0,19.0,72,30.42,10.0,SE,3.5,-,N/A,,Clear,140,2013-01-10 15:54:00
10:54 AM,32.0,19.9,61,30.40,10.0,SE,4.6,-,N/A,,Clear,140,2013-01-10 16:54:00
11:54 AM,36.0,18.0,48,30.37,10.0,South,6.9,-,N/A,,Clear,180,2013-01-10 17:54:00
12:54 PM,37.0,19.0,48,30.32,10.0,SE,9.2,-,N/A,,Clear,140,2013-01-10 18:54:00
1:54 PM,37.0,19.9,50,30.30,10.0,SE,9.2,-,N/A,,Clear,140,2013-01-10 19:54:00
2:54 PM,36.0,19.9,52,30.27,10.0,SSE,6.9,-,N/A,,Clear,150,2013-01-10 20:54:00
3:54 PM,35.1,23.0,61,30.29,10.0,South,8.1,-,N/A,,Clear,170,2013-01-10 21:54:00
4:54 PM,34.0,27.0,75,30.25,10.0,SE,5.8,-,N/A,,Clear,130,2013-01-10 22:54:00
5:25 PM,33.8,28.4,81,30.17,10.0,ESE,6.9,-,N/A,,Mostly Cloudy,120,2013-01-10 23:25:00
5:51 PM,33.8,28.4,81,30.17,10.0,SE,5.8,-,N/A,,Scattered Clouds,130,2013-01-10 23:51:00
5:54 PM,33.1,28.0,82,30.23,10.0,SE,5.8,-,N/A,,Partly Cloudy,140,2013-01-10 23:54:00
6:21 PM,33.8,28.4,81,30.16,10.0,Variable,6.9,-,N/A,,Mostly Cloudy,0,2013-01-11 00:21:00
6:45 PM,33.8,28.4,81,30.14,10.0,SE,6.9,-,N/A,,Overcast,140,2013-01-11 00:45:00
7:12 PM,33.8,30.2,87,30.12,10.0,SE,6.9,-,N/A,,Scattered Clouds,140,2013-01-11 01:12:00
7:54 PM,33.1,30.0,89,30.16,10.0,SE,6.9,-,N/A,,Clear,140,2013-01-11 01:54:00
8:54 PM,34.0,30.0,85,30.11,10.0,SE,5.8,-,0.00,,Overcast,130,2013-01-11 02:54:00
9:54 PM,33.1,30.9,92,30.04,7.0,SE,8.1,-,0.00,Rain,Light Rain,130,2013-01-11 03:54:00
10:45 PM,33.8,30.2,87,29.94,9.0,SE,6.9,-,0.01,Rain,Light Rain,140,2013-01-11 04:45:00
10:54 PM,34.0,30.9,89,29.99,7.0,SE,8.1,-,0.01,Rain,Light Rain,140,2013-01-11 04:54:00
11:22 PM,33.8,32.0,93,29.92,5.0,SSE,11.5,-,0.00,Rain,Light Rain,150,2013-01-11 05:22:00
11:54 PM,34.0,32.0,92,29.93,7.0,SE,9.2,-,0.00,Rain,Light Rain,130,2013-01-11 05:54:00